Sergeant Bluff, IA

6:01 PM CST on February 19, 2017 (GMT -0600)
Sioux Gateway

Weather History for KSUX - June, 2013

Change the Weather History Date:

Wednesday, June 19, 2013

  Actual Average Record
Temperature  
Mean Temperature 75 °F 72 °F  
Max Temperature 89 °F 83 °F 103 °F (1988)
Min Temperature 60 °F 60 °F 43 °F (1976)
Degree Days  
Heating Degree Days 0 0  
Month to date heating degree days 40 24  
Since 1 June heating degree days 40 24  
Since 1 July heating degree days 7092 6858  
Cooling Degree Days 10 7  
Month to date cooling degree days 64 98  
Year to date cooling degree days 120 162  
Since 1 June cooling degree days 64 98  
Growing Degree Days 24 (Base 50)    
Moisture  
Dew Point 60 °F    
Average Humidity 59    
Maximum Humidity 84    
Minimum Humidity 35    
Precipitation  
Precipitation 0.00 in 0.12 in 1.16 in (1942)
Month to date precipitation 1.69 2.50  
Year to date precipitation 15.02 12.48  
Snow  
Snow 0.00 in 0.00 in 0.00 in ()
Month to date snowfall 0.0 0.0  
Since 1 June snowfall 0.0 0.0  
Since 1 July snowfall 45.1 34.8  
Snow Depth 0.00 in    
Sea Level Pressure  
Sea Level Pressure 29.93 in    
Wind  
Wind Speed 12 mph (SE)    
Max Wind Speed 23 mph    
Max Gust Speed 33 mph    
Visibility 10 miles    
Events      
T = Trace of Precipitation, MM = Missing Value Source: NWS Daily Summary

Daily Weather History Graph

Daily Weather History Graph

Search for Another Location

Airport or City:

Trip Planner

Search our weather history database for the weather conditions in past years. The results will help you decide how hot, cold, wet, or windy it might be!

Date:

Astronomy

Jun. 19, 2013 Rise Set
Actual Time 5:48 AM CDT 9:05 PM CDT
Civil Twilight 5:13 AM CDT 9:40 PM CDT
Nautical Twilight 4:28 AM CDT 10:25 PM CDT
Astronomical Twilight 3:33 AM CDT 11:20 PM CDT
Moon 4:56 PM CDT (6/19) 2:37 AM CDT (6/19)
Length of Visible Light 16h 27m
Length of Day
15h 17m
Waxing Gibbous, 80% of the Moon is Illuminated
Jun 19
Waxing Gibbous
Jun 23
Full
Jun 29
Last Quarter
Jul 8
New
Jul 15
First Quarter

Hourly Weather History & Observations

Time (CDT) Temp. Heat Index Dew Point Humidity Pressure Visibility Wind Dir Wind Speed Gust Speed Precip Events Conditions
12:52 AM 68.0 °F - 54.0 °F 61% 29.98 in 10.0 mi East 3.5 mph - N/A   Clear
1:52 AM 64.9 °F - 55.9 °F 73% 29.97 in 10.0 mi SE 3.5 mph - N/A   Clear
2:52 AM 63.0 °F - 55.9 °F 78% 29.96 in 10.0 mi Calm Calm - N/A   Clear
3:49 AM 62.6 °F - 55.4 °F 77% 29.98 in 10.0 mi ESE 5.8 mph - N/A   Partly Cloudy
3:52 AM 62.1 °F - 55.9 °F 80% 29.96 in 10.0 mi ESE 5.8 mph - N/A   Partly Cloudy
4:52 AM 62.1 °F - 57.0 °F 84% 29.96 in 10.0 mi East 5.8 mph - N/A   Clear
5:52 AM 63.0 °F - 57.0 °F 81% 29.98 in 10.0 mi East 5.8 mph - N/A   Clear
6:52 AM 64.0 °F - 57.9 °F 80% 29.99 in 10.0 mi East 6.9 mph - N/A   Scattered Clouds
7:52 AM 68.0 °F - 60.1 °F 76% 29.99 in 10.0 mi ESE 5.8 mph - N/A   Mostly Cloudy
8:52 AM 73.0 °F - 60.1 °F 64% 29.98 in 10.0 mi SE 9.2 mph - N/A   Partly Cloudy
9:52 AM 77.0 °F - 61.0 °F 58% 29.97 in 10.0 mi SSE 13.8 mph - N/A   Partly Cloudy
10:52 AM 81.0 °F 81.7 °F 61.0 °F 50% 29.96 in 10.0 mi SSE 15.0 mph 21.9 mph N/A   Clear
11:52 AM 79.0 °F - 60.1 °F 52% 29.96 in 10.0 mi South 16.1 mph - N/A   Clear
12:52 PM 84.9 °F 85.9 °F 63.0 °F 48% 29.93 in 10.0 mi South 18.4 mph 26.5 mph N/A   Clear
1:52 PM 87.1 °F 88.3 °F 64.0 °F 46% 29.92 in 10.0 mi SSE 16.1 mph 25.3 mph N/A   Clear
2:52 PM 87.1 °F 88.3 °F 64.0 °F 46% 29.90 in 10.0 mi SSE 16.1 mph 27.6 mph N/A   Partly Cloudy
3:52 PM 87.1 °F 88.3 °F 64.0 °F 46% 29.89 in 10.0 mi South 16.1 mph - N/A   Partly Cloudy
4:52 PM 88.0 °F 89.3 °F 64.0 °F 45% 29.88 in 10.0 mi South 18.4 mph 26.5 mph N/A   Partly Cloudy
5:52 PM 87.1 °F 88.3 °F 64.0 °F 46% 29.87 in 10.0 mi SSE 20.7 mph 28.8 mph N/A   Partly Cloudy
6:52 PM 86.0 °F 86.3 °F 62.1 °F 44% 29.86 in 10.0 mi South 20.7 mph 26.5 mph N/A   Clear
7:52 PM 84.0 °F 84.4 °F 61.0 °F 46% 29.86 in 10.0 mi South 13.8 mph - N/A   Clear
8:52 PM 82.0 °F 83.0 °F 62.1 °F 51% 29.86 in 10.0 mi SSE 11.5 mph - N/A   Clear
9:52 PM 79.0 °F - 62.1 °F 56% 29.88 in 10.0 mi SSE 10.4 mph - N/A   Clear
10:52 PM 77.0 °F - 62.1 °F 60% 29.90 in 10.0 mi SSE 10.4 mph - N/A   Clear
11:52 PM 75.0 °F - 63.0 °F 66% 29.91 in 10.0 mi SE 9.2 mph - N/A   Clear